DELTA 1 DEB, 10751

Orbit data source: Space-Track

DELTA 1 DEB, 10751 is space debris in LEO originally from a launch on Thu, 29 Jul 1976 UTC launched from the Air Force Western Test Range (AFWTR). Debris objects in space refer to the collection of defunct objects orbiting the Earth. Examples of debris include non-operational satellites, rocket bodies, and fragments generated from explosions, collisions, or faulty payload assembly.

Loading next visibility...
Identifier
10751, 1976-077AY
Orbit
LEO
Country
Flag of USUS
Related business
Manufacturer
Unknown
Mission
Spacecraft
Bus & Motor
Unknown
Mass
Unknown
Launch date (UTC)
1976-07-29 (50 years ago)
Launch vehicle
Unknown
Launch site
Air Force Western Test Range (AFWTR)
Object type
Payload
Rocket body
Debris
Shape & HBR
Unknown shape, 1.1 m
Radar Cross Section
Medium (>0.1 m² and <1 m²)

Expand to show TLE details & history
Last TLE update: 22 hours ago

TLE from 22 hours ago
0 DELTA 1 DEB
1 10751U 76077AY  26099.89886711  .00000526  00000-0  74418-2 0  9994
2 10751 102.0805  88.9057 0614142 121.1604 317.8574 11.55533306 88948
Epoch: 2026-04-09T21:34Z
TLE epoch observation values (Epoch: 2026-04-09T21:34:22.118Z)
Latitude
70.13666°
Longitude
-108.94916°
Altitude
1,536.881 km
Speed
7.258 km/s
True Right ascension
03h 31m 07s
True Declination
70° 02' 14"
Sunlit
Object was in daylight at epoch
Visualization orbit readout
Latitude
Unknown
Longitude
Unknown
Altitude
Unknown
Speed
Unknown
Apparent Right ascension
Unknown
Apparent Declination
Unknown
Sunlit
N/A
Visualization observer readout
Local Sidereal Time
01:30:18
Azimuth
Unknown
Elevation
Unknown
Doppler factor
Unknown
Orbital elements
Apogee altitude
2,391.394 km
Perigee altitude
1,376.571 km
Semi-major axis
8,262.12 km
Eccentricity
0.06141
Inclination
102.0805°
RAAN
88.9057°
Arg. of periapsis
121.1604°
True anomaly
312.85749°
Mean anomaly
317.8574°
Eccentric anomaly
315.38607°
Mean motion
2.89005 °/min
Orbital period
124.57 mins
BSTAR
0.0074418
Loading maneuver chart data...
Computing Atmospheric mass density...
Loading historical data...
Loading historical data...
Loading historical data...
Loading historical data...
Loading historical data...
Loading historical data...
Loading historical data...

Documentation

Showing up to 5 results
|